Regional Weather Roundup
Issued by NWS

Home | Current Version | Previous Version | Text Only | Print | Product List | Glossary Off
Versions: 1 2 3 4 5 6 7 8 9 10 11 12 13 14 15 16 17 18 19 20 21 22 23 24 25 26 27 28 29 30 31 32 33 34 35 36 37 38 39 40 41 42 43 44 45 46 47 48 49 50

000
ASUS43 KIND 261009
RWRIN

WEATHER ROUNDUP FOR INDIANA
NATIONAL WEATHER SERVICE INDIANAPOLIS IN
600 AM EDT THU APR 26 2018

NOTE: "FAIR" INDICATES FEW OR NO CLOUDS BELOW 12,000 FEET WITH NO
SIGNIFICANT WEATHER AND/OR OBSTRUCTIONS TO VISIBILITY.

* - STATION DOES NOT REPORT WEATHER SUCH AS PRECIPITATION OR FOG.

+ - STATION NOT QUALITY CONTROLLED BY THE NATIONAL WEATHER SERVICE.
    USE DATA WITH CAUTION...ESPECIALLY DEWPOINT AND RELATIVE
    HUMIDITY OBSERVATIONS.

INZ001>003-010>013-019-020-261100-
NORTHWEST INDIANA

CITY           SKY/WX    TMP DP  RH WIND       PRES   REMARKS
GARY /AIRPORT/ CLEAR     32  32 100 CALM      29.96F
KNOX *+        FAIR      28  27  93 CALM      29.95R
LA PORTE +     FAIR      32  31  95 N7        29.95S WCI  26
MICHIGAN CITY+ FAIR      30  30 100 CALM      29.96S
MONTICELLO +   FAIR      31  28  90 NW5       29.93S WCI  26
RENSSELAER +   FAIR      32  28  86 NW7       29.94F WCI  26
VALPARAISO     FAIR      37  32  82 NW7       29.95S WCI  32

$$

LMZ046-743>745-261100-
SOUTHERN LAKE MICHIGAN

STATION/POSITION TIME  TEMP    WIND        PRES    WAVE
                       AIR SEA DIR/SP/G            HT
                 (UTC) (F)     (DEG/KT/KT) (MB)    (FT)
BURNS HARBOR     0940   40     350/  3/  6 1014.9F
MICHIGAN CITY    0940   38     340/  8/  9   N/A

$$

INZ004-005-014>016-021>024-261100-
NORTH CENTRAL INDIANA

CITY           SKY/WX    TMP DP  RH WIND       PRES   REMARKS
GOSHEN         FAIR      34  30  85 CALM      29.93S
LOGANSPORT +   FAIR      32  30  93 N8        29.93S WCI  25
PERU/GRISSOM   FAIR      34  34  99 CALM      29.91S
ROCHESTER +    FAIR      34  32  93 CALM      29.93S
SOUTH BEND     FAIR      30  26  85 CALM      29.95R
WARSAW +       FAIR      32  32 100 CALM      29.93S

$$

INZ006>009-017-018-025>027-261100-
NORTHEAST INDIANA

CITY           SKY/WX    TMP DP  RH WIND       PRES   REMARKS
ANGOLA *+      MOCLDY    41  39  93 SE5       29.92S
AUBURN +       FAIR      34  34 100 CALM      29.93S
FORT WAYNE     MOCLDY    36  32  85 N3        29.92F
HUNTINGTON +   FAIR      33  30  89 CALM      29.92S
KENDALLVILLE + FAIR      36  32  88 CALM      29.93S

$$

INZ028-029-035-036-043>045-051>053-261100-
WEST CENTRAL INDIANA

CITY           SKY/WX    TMP DP  RH WIND       PRES   REMARKS
CRAWFORDSVL +  FAIR      32  28  86 W3        29.93R
GREENCASTLE +  FAIR      39  30  70 CALM      29.92S
LAFAYETTE      FAIR      32  29  88 CALM      29.93S
TERRE HAUTE    FAIR      41  35  79 N5        29.93F

$$

INZ030>032-037>040-046>048-054>057-064-065-261100-
CENTRAL INDIANA

CITY           SKY/WX    TMP DP  RH WIND       PRES   REMARKS
FISHERS *+     FAIR      34  32  93 N3        29.92S
FRANKFORT +    FAIR      36  31  82 N6        29.93F WCI  31
GREENWOOD *+   FAIR      39  31  70 CALM      29.92S
INDIANAPOLIS   MOCLDY    38  31  76 NW3       29.91S
-EAGLE CREEK   FAIR      38  29  70 CALM      29.91R
KOKOMO +       FAIR      33  29  85 NW3       29.93S
MARION +       FAIR      32  29  88 CALM      29.92F
MT COMFORT *+  FAIR      36  34  93 N3        29.91S
SHELBYVILLE    FAIR      40  32  73 N5        29.90F WCI  37
ZIONSVILLE +   FAIR      33  30  86 N3        29.92R

$$

INZ033-034-041-042-049-050-058-059-261100-
EAST CENTRAL INDIANA

CITY           SKY/WX    TMP DP  RH WIND       PRES   REMARKS
MUNCIE         FAIR      36  29  75 CALM      29.91S
RICHMOND +     FAIR      36  32  87 N5        29.90F WCI  32

$$

INZ060-061-067>069-081>083-085>088-261100-
SOUTHWEST INDIANA

CITY           SKY/WX    TMP DP  RH WIND       PRES   REMARKS
EVANSVILLE     CLOUDY    52  39  61 NE7       29.89F
HUNTINGBURG +  FAIR      49  36  61 NE9       29.89F
WASHINGTON +   FAIR      45  34  65 N5        29.91F

$$

INZ062-063-066-070>080-084-089>092-261100-
SOUTH CENTRAL AND SOUTHEAST INDIANA

CITY           SKY/WX    TMP DP  RH WIND       PRES   REMARKS
BATESVILLE +   CLEAR     39  34  81 MISG      29.90S
BEDFORD +      FAIR      43  32  65 CALM      29.91S
BLOOMINGTON    FAIR      41  35  79 CALM      29.91F
FRENCH LICK *+ FAIR      46  27  46 CALM      29.90F
MADISON *+     FAIR      43  37  81 CALM      29.92S
NORTH VERNON + FAIR      41  34  75 CALM      29.91F
SEYMOUR +      FAIR      43  32  65 CALM      29.91F

$$





USA.gov is the U.S. government's official web portal to all federal, state and local government web resources and services.